AAL244 KBOS-CYHZ

Flight info

Callsign AAL244
Flight time 1h 1m
Altitude 37000
Route LBSTA8 LBSTA ALLEX FUNDY5
Aircraft B738/M-SDE2E3FGHIRWXY/LB1

Departure

Time 2026-05-05 01:35
Airport Boston Logan International Airport (KBOS)

Arrival

Time 2026-05-05 02:36
Airport Halifax / Stanfield International Airport (CYHZ)
Time Latitude Longitude Altitude Speed Heading
2026-05-05 01:13 42.36017 -71.01869 -13 ft 0 kts 30°
2026-05-05 01:23 42.36004 -71.01880 29 ft 4 kts 37°
2026-05-05 01:23 42.35984 -71.01904 30 ft 4 kts 55°
2026-05-05 01:23 42.35974 -71.01935 29 ft 4 kts 93°
2026-05-05 01:24 42.35977 -71.01952 30 ft 1 kts 120°
2026-05-05 01:27 42.35973 -71.01943 29 ft 5 kts 120°
2026-05-05 01:27 42.35950 -71.01890 26 ft 8 kts 120°
2026-05-05 01:27 42.35921 -71.01814 26 ft 12 kts 109°
2026-05-05 01:28 42.35900 -71.01688 29 ft 14 kts 102°
2026-05-05 01:28 42.35897 -71.01559 27 ft 14 kts 59°
2026-05-05 01:28 42.35980 -71.01505 26 ft 13 kts 20°
2026-05-05 01:28 42.36066 -71.01464 27 ft 14 kts 19°
2026-05-05 01:29 42.36170 -71.01414 25 ft 17 kts 19°
2026-05-05 01:29 42.36282 -71.01360 26 ft 17 kts 19°
2026-05-05 01:29 42.36389 -71.01309 25 ft 16 kts 20°
2026-05-05 01:29 42.36511 -71.01249 26 ft 24 kts 20°
2026-05-05 01:30 42.36667 -71.01173 28 ft 23 kts 20°
2026-05-05 01:30 42.36816 -71.01178 25 ft 22 kts 323°
2026-05-05 01:30 42.36896 -71.01214 25 ft 13 kts 35°
2026-05-05 01:30 42.36961 -71.01134 25 ft 12 kts 35°
2026-05-05 01:31 42.37036 -71.01079 25 ft 12 kts 27°
2026-05-05 01:31 42.37111 -71.01029 25 ft 12 kts 26°
2026-05-05 01:31 42.37203 -71.00969 27 ft 19 kts 26°
2026-05-05 01:31 42.37325 -71.00892 29 ft 19 kts 23°
2026-05-05 01:32 42.37449 -71.00831 26 ft 19 kts 20°
2026-05-05 01:32 42.37569 -71.00776 25 ft 18 kts 18°
2026-05-05 01:32 42.37685 -71.00723 26 ft 17 kts 20°
2026-05-05 01:32 42.37796 -71.00667 25 ft 17 kts 21°
2026-05-05 01:33 42.37835 -71.00590 25 ft 0 kts 98°
2026-05-05 01:33 42.37835 -71.00585 25 ft 2 kts 98°
2026-05-05 01:34 42.37828 -71.00552 26 ft 6 kts 111°
2026-05-05 01:34 42.37784 -71.00484 27 ft 12 kts 175°
2026-05-05 01:34 42.37631 -71.00552 27 ft 52 kts 199°
2026-05-05 01:34 42.37048 -71.00834 27 ft 123 kts 199°
2026-05-05 01:35 42.36087 -71.01291 292 ft 159 kts 202°
2026-05-05 01:35 42.35081 -71.01786 1344 ft 152 kts 198°
2026-05-05 01:35 42.34051 -71.01486 2346 ft 168 kts 159°
2026-05-05 01:35 42.33073 -71.00294 2754 ft 212 kts 137°
2026-05-05 01:36 42.32110 -70.98651 3203 ft 229 kts 131°
2026-05-05 01:36 42.31441 -70.96631 3858 ft 243 kts 105°
2026-05-05 01:36 42.31306 -70.94280 4312 ft 263 kts 83°
2026-05-05 01:36 42.31678 -70.91777 4718 ft 284 kts 77°
2026-05-05 01:37 42.32120 -70.89103 5345 ft 296 kts 77°
2026-05-05 01:37 42.32553 -70.86395 6342 ft 294 kts 77°
2026-05-05 01:37 42.32970 -70.83682 7213 ft 296 kts 77°
2026-05-05 01:37 42.33383 -70.80942 8071 ft 299 kts 77°
2026-05-05 01:38 42.33846 -70.78195 8908 ft 301 kts 68°
2026-05-05 01:38 42.34946 -70.75825 9736 ft 298 kts 40°
2026-05-05 01:38 42.36651 -70.74289 10402 ft 299 kts 19°
2026-05-05 01:38 42.38689 -70.73367 10611 ft 321 kts 12°
2026-05-05 01:39 42.40904 -70.72507 10937 ft 339 kts 12°
2026-05-05 01:39 42.43196 -70.71592 11574 ft 347 kts 13°
2026-05-05 01:39 42.45522 -70.70670 12320 ft 350 kts 11°
2026-05-05 01:39 42.47907 -70.69905 13058 ft 354 kts
2026-05-05 01:40 42.50355 -70.69200 13378 ft 363 kts
2026-05-05 01:40 42.52824 -70.68497 13643 ft 361 kts
2026-05-05 01:40 42.55274 -70.67786 13882 ft 360 kts
2026-05-05 01:40 42.57738 -70.67059 13970 ft 364 kts
2026-05-05 01:41 42.60203 -70.66322 13969 ft 361 kts
2026-05-05 01:41 42.62656 -70.65584 13980 ft 362 kts
2026-05-05 01:41 42.65113 -70.64843 13965 ft 361 kts
2026-05-05 01:41 42.67558 -70.64106 13975 ft 360 kts
2026-05-05 01:42 42.70014 -70.63492 13968 ft 358 kts
2026-05-05 01:42 42.72495 -70.62985 14149 ft 363 kts
2026-05-05 01:42 42.75011 -70.62470 14834 ft 366 kts
2026-05-05 01:42 42.77522 -70.61905 15624 ft 368 kts
2026-05-05 01:43 42.79894 -70.60483 16291 ft 382 kts 31°
2026-05-05 01:43 42.81795 -70.57906 16925 ft 394 kts 51°
2026-05-05 01:43 42.83339 -70.54792 17570 ft 399 kts 54°
2026-05-05 01:43 42.84840 -70.51581 18167 ft 405 kts 55°
2026-05-05 01:44 42.86340 -70.48315 18740 ft 408 kts 55°
2026-05-05 01:44 42.87846 -70.45035 19354 ft 410 kts 55°
2026-05-05 01:44 42.89369 -70.41738 19955 ft 412 kts 54°
2026-05-05 01:44 42.90911 -70.38426 20545 ft 414 kts 54°
2026-05-05 01:45 42.92467 -70.35100 21115 ft 417 kts 54°
2026-05-05 01:45 42.94036 -70.31756 21672 ft 420 kts 54°
2026-05-05 01:45 42.95617 -70.28391 22232 ft 423 kts 54°
2026-05-05 01:45 42.97211 -70.25000 22775 ft 426 kts 54°
2026-05-05 01:46 42.98814 -70.21586 23304 ft 429 kts 54°
2026-05-05 01:46 43.00428 -70.18147 23781 ft 431 kts 53°
2026-05-05 01:46 43.02048 -70.14689 24228 ft 433 kts 53°
2026-05-05 01:46 43.03653 -70.11259 24687 ft 435 kts 53°
2026-05-05 01:47 43.05284 -70.07770 25139 ft 436 kts 53°
2026-05-05 01:47 43.06921 -70.04262 25577 ft 438 kts 53°
2026-05-05 01:47 43.08564 -70.00739 25999 ft 440 kts 53°
2026-05-05 01:47 43.10213 -69.97198 26419 ft 442 kts 53°
2026-05-05 01:48 43.11869 -69.93638 26841 ft 444 kts 52°
2026-05-05 01:48 43.13530 -69.90061 27240 ft 446 kts 52°
2026-05-05 01:48 43.15195 -69.86473 27641 ft 448 kts 52°
2026-05-05 01:48 43.16869 -69.82862 28031 ft 450 kts 52°
2026-05-05 01:49 43.18546 -69.79239 28406 ft 452 kts 52°
2026-05-05 01:49 43.20230 -69.75595 28778 ft 453 kts 52°
2026-05-05 01:49 43.21921 -69.71933 29152 ft 455 kts 52°
2026-05-05 01:49 43.23614 -69.68260 29509 ft 457 kts 52°
2026-05-05 01:50 43.25313 -69.64572 29845 ft 458 kts 52°
2026-05-05 01:50 43.27017 -69.60868 30138 ft 460 kts 52°
2026-05-05 01:50 43.28725 -69.57149 30431 ft 461 kts 51°
2026-05-05 01:50 43.30434 -69.53423 30738 ft 462 kts 51°
2026-05-05 01:51 43.32143 -69.49692 31031 ft 462 kts 51°
2026-05-05 01:51 43.33854 -69.45953 31369 ft 462 kts 51°
2026-05-05 01:51 43.35554 -69.42228 31786 ft 459 kts 51°
2026-05-05 01:51 43.37242 -69.38526 32238 ft 455 kts 51°
2026-05-05 01:52 43.38915 -69.34850 32648 ft 453 kts 51°
2026-05-05 01:52 43.40584 -69.31184 32999 ft 452 kts 50°
2026-05-05 01:52 43.42247 -69.27528 33368 ft 450 kts 50°
2026-05-05 01:52 43.43904 -69.23879 33759 ft 448 kts 50°
2026-05-05 01:53 43.45549 -69.20252 34083 ft 446 kts 50°
2026-05-05 01:53 43.47197 -69.16619 34226 ft 449 kts 50°
2026-05-05 01:53 43.48858 -69.12956 34358 ft 452 kts 50°
2026-05-05 01:53 43.50522 -69.09277 34551 ft 453 kts 51°
2026-05-05 01:54 43.52187 -69.05591 34763 ft 454 kts 51°
2026-05-05 01:54 43.53856 -69.01890 34913 ft 456 kts 51°
2026-05-05 01:54 43.55530 -68.98172 35081 ft 457 kts 51°
2026-05-05 01:54 43.57206 -68.94443 35266 ft 458 kts 51°
2026-05-05 01:55 43.58886 -68.90702 35437 ft 460 kts 52°
2026-05-05 01:55 43.60569 -68.86948 35595 ft 461 kts 52°
2026-05-05 01:55 43.62259 -68.83176 35772 ft 462 kts 52°
2026-05-05 01:55 43.63951 -68.79393 35928 ft 464 kts 52°
2026-05-05 01:56 43.65647 -68.75596 36062 ft 466 kts 52°
2026-05-05 01:56 43.67350 -68.71780 36207 ft 467 kts 52°
2026-05-05 01:56 43.69054 -68.67956 36380 ft 468 kts 53°
2026-05-05 01:56 43.70760 -68.64119 36541 ft 469 kts 53°
2026-05-05 01:57 43.72470 -68.60271 36678 ft 471 kts 53°
2026-05-05 01:57 43.74183 -68.56411 36828 ft 472 kts 53°
2026-05-05 01:57 43.77623 -68.48645 36880 ft 474 kts 53°
2026-05-05 01:58 43.81052 -68.40876 36892 ft 472 kts 53°
2026-05-05 01:58 43.84467 -68.33123 36887 ft 471 kts 53°
2026-05-05 01:59 43.87866 -68.25385 36889 ft 470 kts 53°
2026-05-05 01:59 43.91235 -68.17699 36889 ft 469 kts 53°
2026-05-05 02:00 43.94620 -68.09955 36889 ft 469 kts 53°
2026-05-05 02:00 43.98001 -68.02198 36889 ft 470 kts 53°
2026-05-05 02:01 44.01383 -67.94418 36893 ft 471 kts 54°
2026-05-05 02:01 44.04767 -67.86614 36889 ft 472 kts 54°
2026-05-05 02:02 44.08153 -67.78782 36892 ft 473 kts 54°
2026-05-05 02:02 44.11546 -67.70913 36893 ft 475 kts 54°
2026-05-05 02:03 44.14943 -67.63011 36893 ft 476 kts 54°
2026-05-05 02:03 44.18344 -67.55079 36892 ft 478 kts 54°
2026-05-05 02:04 44.21747 -67.47120 36892 ft 478 kts 54°
2026-05-05 02:04 44.25151 -67.39136 36888 ft 479 kts 54°
2026-05-05 02:05 44.28551 -67.31139 36889 ft 479 kts 54°
2026-05-05 02:05 44.31926 -67.23178 36887 ft 480 kts 54°
2026-05-05 02:06 44.35316 -67.15161 36887 ft 479 kts 54°
2026-05-05 02:06 44.38701 -67.07136 36886 ft 479 kts 54°
2026-05-05 02:07 44.41954 -66.98989 36804 ft 485 kts 65°
2026-05-05 02:07 44.42945 -66.94440 36546 ft 490 kts 72°
2026-05-05 02:07 44.43485 -66.91316 36383 ft 488 kts 73°
2026-05-05 02:08 44.44217 -66.86682 36124 ft 487 kts 73°
2026-05-05 02:08 44.44918 -66.82113 35885 ft 487 kts 73°
2026-05-05 02:08 44.45639 -66.77493 35636 ft 486 kts 72°
2026-05-05 02:08 44.46382 -66.72877 35387 ft 486 kts 71°
2026-05-05 02:09 44.47144 -66.68271 35160 ft 485 kts 71°
2026-05-05 02:09 44.47918 -66.63668 34924 ft 485 kts 70°
2026-05-05 02:09 44.48695 -66.59084 34639 ft 482 kts 70°
2026-05-05 02:09 44.49465 -66.54539 34265 ft 477 kts 70°
2026-05-05 02:10 44.50223 -66.50051 33955 ft 471 kts 69°
2026-05-05 02:10 44.50972 -66.45606 33490 ft 468 kts 69°
2026-05-05 02:10 44.51716 -66.41189 33035 ft 464 kts 69°
2026-05-05 02:10 44.52452 -66.36804 32547 ft 461 kts 69°
2026-05-05 02:11 44.53183 -66.32434 32074 ft 459 kts 69°
2026-05-05 02:11 44.53907 -66.28093 31651 ft 456 kts 69°
2026-05-05 02:11 44.54624 -66.23783 31234 ft 453 kts 69°
2026-05-05 02:11 44.55334 -66.19497 30828 ft 450 kts 69°
2026-05-05 02:12 44.56037 -66.15243 30424 ft 447 kts 69°
2026-05-05 02:12 44.57428 -66.06802 29567 ft 441 kts 69°
2026-05-05 02:12 44.58114 -66.02625 29119 ft 438 kts 69°
2026-05-05 02:13 44.58794 -65.98474 28687 ft 435 kts 69°
2026-05-05 02:13 44.59467 -65.94349 28266 ft 432 kts 69°
2026-05-05 02:13 44.60134 -65.90257 27849 ft 429 kts 69°
2026-05-05 02:13 44.60796 -65.86189 27432 ft 426 kts 69°
2026-05-05 02:14 44.61451 -65.82148 27028 ft 423 kts 69°
2026-05-05 02:14 44.62101 -65.78131 26633 ft 421 kts 69°
2026-05-05 02:14 44.62748 -65.74130 26226 ft 419 kts 69°
2026-05-05 02:14 44.63389 -65.70151 25823 ft 417 kts 70°
2026-05-05 02:15 44.64026 -65.66186 25428 ft 415 kts 70°
2026-05-05 02:15 44.64660 -65.62237 25027 ft 415 kts 70°
2026-05-05 02:15 44.65292 -65.58285 24605 ft 414 kts 70°
2026-05-05 02:15 44.65922 -65.54344 24196 ft 414 kts 70°
2026-05-05 02:16 44.66549 -65.50402 23792 ft 413 kts 70°
2026-05-05 02:16 44.67167 -65.46517 23366 ft 413 kts 70°
2026-05-05 02:16 44.67791 -65.42577 22905 ft 413 kts 71°
2026-05-05 02:16 44.68413 -65.38641 22484 ft 412 kts 71°
2026-05-05 02:17 44.69038 -65.34669 22067 ft 410 kts 71°
2026-05-05 02:17 44.69643 -65.30814 21656 ft 409 kts 71°
2026-05-05 02:17 44.70254 -65.26919 21255 ft 407 kts 71°
2026-05-05 02:17 44.70861 -65.23037 20839 ft 406 kts 71°
2026-05-05 02:18 44.71465 -65.19169 20445 ft 405 kts 71°
2026-05-05 02:18 44.72066 -65.15312 20030 ft 404 kts 72°
2026-05-05 02:18 44.72666 -65.11456 19629 ft 403 kts 72°
2026-05-05 02:18 44.73263 -65.07608 19205 ft 403 kts 72°
2026-05-05 02:19 44.73858 -65.03762 18797 ft 402 kts 72°
2026-05-05 02:19 44.74451 -64.99915 18392 ft 402 kts 72°
2026-05-05 02:19 44.75042 -64.96074 17958 ft 402 kts 73°
2026-05-05 02:19 44.75632 -64.92233 17527 ft 401 kts 73°
2026-05-05 02:20 44.76217 -64.88411 17118 ft 399 kts 73°
2026-05-05 02:20 44.76799 -64.84606 16718 ft 397 kts 73°
2026-05-05 02:20 44.77376 -64.80818 16316 ft 395 kts 73°
2026-05-05 02:20 44.77950 -64.77043 15942 ft 393 kts 73°
2026-05-05 02:21 44.78525 -64.73264 15431 ft 395 kts 73°
2026-05-05 02:21 44.79096 -64.69492 15047 ft 393 kts 74°
2026-05-05 02:21 44.79664 -64.65731 14654 ft 392 kts 74°
2026-05-05 02:21 44.80228 -64.61985 14247 ft 391 kts 74°
2026-05-05 02:22 44.80792 -64.58236 13878 ft 390 kts 74°
2026-05-05 02:22 44.81353 -64.54500 13455 ft 390 kts 74°
2026-05-05 02:22 44.81911 -64.50767 13037 ft 388 kts 75°
2026-05-05 02:22 44.82465 -64.47055 12642 ft 386 kts 75°
2026-05-05 02:23 44.83015 -64.43361 12249 ft 384 kts 75°
2026-05-05 02:23 44.83561 -64.39685 11865 ft 382 kts 75°
2026-05-05 02:23 44.84103 -64.36033 11490 ft 380 kts 75°
2026-05-05 02:23 44.84642 -64.32392 11120 ft 378 kts 75°
2026-05-05 02:24 44.85176 -64.28773 10752 ft 377 kts 75°
2026-05-05 02:24 44.85708 -64.25166 10410 ft 374 kts 75°
2026-05-05 02:24 44.86229 -64.21614 10244 ft 366 kts 75°
2026-05-05 02:24 44.86746 -64.18140 10081 ft 359 kts 75°
2026-05-05 02:25 44.87265 -64.14786 9963 ft 350 kts 75°
2026-05-05 02:25 44.87779 -64.11498 9953 ft 338 kts 74°
2026-05-05 02:25 44.88279 -64.08307 9803 ft 332 kts 74°
2026-05-05 02:25 44.88773 -64.05151 9608 ft 327 kts 75°
2026-05-05 02:26 44.89260 -64.02030 9354 ft 325 kts 75°
2026-05-05 02:26 44.89743 -63.98922 9106 ft 323 kts 75°
2026-05-05 02:26 44.90221 -63.95837 8839 ft 321 kts 75°
2026-05-05 02:26 44.90696 -63.92765 8565 ft 320 kts 75°
2026-05-05 02:27 44.91168 -63.89700 8305 ft 319 kts 75°
2026-05-05 02:27 44.91635 -63.86654 8058 ft 317 kts 75°
2026-05-05 02:27 44.92101 -63.83614 7808 ft 315 kts 75°
2026-05-05 02:27 44.92562 -63.80601 7570 ft 314 kts 75°
2026-05-05 02:28 44.93021 -63.77594 7313 ft 313 kts 75°
2026-05-05 02:28 44.93478 -63.74599 7070 ft 311 kts 75°
2026-05-05 02:28 44.93930 -63.71621 6805 ft 310 kts 75°
2026-05-05 02:28 44.94382 -63.68653 6550 ft 309 kts 75°
2026-05-05 02:29 44.94827 -63.65715 6426 ft 302 kts 76°
2026-05-05 02:29 44.95259 -63.62848 6330 ft 295 kts 75°
2026-05-05 02:29 44.95682 -63.60060 6254 ft 286 kts 73°
2026-05-05 02:29 44.96477 -63.57610 6161 ft 267 kts 44°
2026-05-05 02:30 44.97769 -63.55890 5935 ft 248 kts 25°
2026-05-05 02:30 44.99176 -63.54526 5595 ft 243 kts 24°
2026-05-05 02:30 45.00523 -63.53218 5470 ft 228 kts 24°
2026-05-05 02:30 45.01817 -63.51954 5156 ft 224 kts 24°
2026-05-05 02:31 45.03096 -63.50700 4794 ft 224 kts 24°
2026-05-05 02:31 45.04369 -63.49444 4424 ft 223 kts 26°
2026-05-05 02:31 45.05376 -63.47730 4018 ft 238 kts 67°
2026-05-05 02:31 45.05406 -63.45434 3720 ft 232 kts 114°
2026-05-05 02:32 45.04552 -63.43693 3608 ft 206 kts 150°
2026-05-05 02:32 45.03346 -63.42803 3329 ft 189 kts 176°
2026-05-05 02:32 45.02092 -63.42651 3035 ft 173 kts 199°
2026-05-05 02:32 45.00911 -63.42928 3025 ft 174 kts 203°
2026-05-05 02:33 44.99730 -63.43245 2995 ft 170 kts 203°
2026-05-05 02:33 44.98573 -63.43556 2716 ft 170 kts 203°
2026-05-05 02:33 44.97414 -63.43867 2408 ft 169 kts 203°
2026-05-05 02:33 44.96267 -63.44174 2047 ft 167 kts 202°
2026-05-05 02:34 44.95189 -63.44538 1915 ft 149 kts 215°
2026-05-05 02:34 44.94297 -63.45191 1782 ft 145 kts 220°
2026-05-05 02:34 44.93461 -63.45913 1606 ft 138 kts 223°
2026-05-05 02:34 44.92676 -63.46641 1414 ft 135 kts 223°
2026-05-05 02:35 44.91903 -63.47426 1200 ft 139 kts 223°
2026-05-05 02:35 44.91125 -63.48238 1037 ft 141 kts 217°
2026-05-05 02:35 44.90311 -63.49039 875 ft 143 kts 216°
2026-05-05 02:35 44.89492 -63.49844 670 ft 144 kts 215°
2026-05-05 02:36 44.88674 -63.50652 472 ft 143 kts 214°
2026-05-05 02:36 44.87963 -63.51351 456 ft 114 kts 214°
2026-05-05 02:36 44.87526 -63.51784 454 ft 38 kts 218°
2026-05-05 02:36 44.87461 -63.52070 454 ft 13 kts 293°
2026-05-05 02:37 44.87532 -63.52111 456 ft 13 kts 30°
2026-05-05 02:37 44.87602 -63.52035 455 ft 12 kts 37°
2026-05-05 02:37 44.87670 -63.51962 455 ft 12 kts 37°
2026-05-05 02:37 44.87795 -63.51838 453 ft 34 kts 36°
2026-05-05 02:38 44.87989 -63.51647 455 ft 33 kts 34°
2026-05-05 02:38 44.88176 -63.51465 454 ft 32 kts 36°
2026-05-05 02:38 44.88330 -63.51322 454 ft 8 kts
2026-05-05 02:38 44.88375 -63.51366 454 ft 8 kts 304°
2026-05-05 02:39 44.88397 -63.51412 454 ft 0 kts 304°